| time (UTC) | temp F | wind direction | speed knots | gust knots | rain 1hr in | rain 24hr in | rain mn in | humidity % | barometer mb |
| 20260906112801 | 68 | 182 | 0.0 | 0.0 | 0.00 | 0.00 | 0.00 | 99 | 1017.5 |
| 20260906112257 | 68 | 182 | 0.0 | 0.0 | 0.00 | 0.00 | 0.00 | 99 | 1017.5 |
| 20260906111756 | 68 | 182 | 0.0 | 0.0 | 0.00 | 0.00 | 0.00 | 99 | 1017.5 |
| 20260906111255 | 67 | 182 | 0.0 | 0.0 | 0.00 | 0.00 | 0.00 | 98 | 1017.5 |
| 20260906110751 | 68 | 182 | 0.0 | 0.0 | 0.00 | 0.00 | 0.00 | 98 | 1017.5 |
| 20260906110247 | 68 | 182 | 0.0 | 0.0 | 0.00 | 0.00 | 0.00 | 98 | 1017.2 |
| 20260906105745 | 68 | 182 | 0.0 | 0.0 | 0.00 | 0.00 | 0.00 | 98 | 1017.2 |
| 20260906105241 | 68 | 182 | 0.0 | 0.0 | 0.00 | 0.00 | 0.00 | 98 | 1017.2 |
| 20260906104737 | 68 | 182 | 0.9 | 0.9 | 0.00 | 0.00 | 0.00 | 98 | 1017.2 |
| 20260906104235 | 68 | 174 | 1.7 | 2.6 | 0.00 | 0.00 | 0.00 | 98 | 1017.2 |
| 20260906103733 | 68 | 172 | 0.0 | 0.9 | 0.00 | 0.00 | 0.00 | 98 | 1017.2 |
| 20260906103228 | 68 | 172 | 0.0 | 0.9 | 0.00 | 0.00 | 0.00 | 97 | 1017.2 |
| 20260906102723 | 69 | 172 | 2.6 | 2.6 | 0.00 | 0.00 | 0.00 | 97 | 1017.2 |
| 20260906102223 | 69 | 172 | 1.7 | 1.7 | 0.00 | 0.00 | 0.00 | 97 | 1016.8 |
| 20260906101718 | 69 | 172 | 1.7 | 1.7 | 0.00 | 0.00 | 0.00 | 97 | 1016.8 |
| 20260906101213 | 69 | 168 | 1.7 | 2.6 | 0.00 | 0.00 | 0.00 | 97 | 1017.2 |
| 20260906100708 | 69 | 166 | 0.9 | 0.9 | 0.00 | 0.00 | 0.00 | 97 | 1017.2 |
| 20260906100208 | 69 | 165 | 0.9 | 1.7 | 0.00 | 0.00 | 0.00 | 97 | 1016.8 |
| 20260906095703 | 70 | 165 | 0.0 | 0.9 | 0.00 | 0.00 | 0.00 | 96 | 1016.8 |
| 20260906095158 | 70 | 165 | 0.9 | 0.9 | 0.00 | 0.00 | 0.00 | 96 | 1016.8 |
| 20260906094657 | 70 | 165 | 2.6 | 2.6 | 0.00 | 0.00 | 0.00 | 96 | 1016.8 |
| 20260906094153 | 70 | 162 | 0.9 | 0.9 | 0.00 | 0.00 | 0.00 | 96 | 1016.8 |
| 20260906093649 | 70 | 162 | 1.7 | 1.7 | 0.00 | 0.00 | 0.00 | 96 | 1016.8 |
| 20260906093144 | 70 | 161 | 1.7 | 1.7 | 0.00 | 0.00 | 0.00 | 96 | 1016.8 |
| 20260906092639 | 70 | 160 | 0.0 | 0.9 | 0.00 | 0.00 | 0.00 | 97 | 1016.8 |
| 20260906092138 | 70 | 160 | 0.9 | 0.9 | 0.00 | 0.00 | 0.00 | 97 | 1016.8 |
| 20260906091635 | 70 | 160 | 0.0 | 0.0 | 0.00 | 0.00 | 0.00 | 97 | 1016.4 |
| 20260906091131 | 70 | 160 | 0.0 | 0.0 | 0.00 | 0.00 | 0.00 | 96 | 1016.8 |
| 20260906090627 | 70 | 160 | 0.0 | 0.9 | 0.00 | 0.00 | 0.00 | 96 | 1016.4 |
| 20260906090126 | 70 | 160 | 0.0 | 0.0 | 0.00 | 0.00 | 0.00 | 96 | 1016.4 |
| 20260906085625 | 70 | 160 | 0.0 | 0.9 | 0.00 | 0.00 | 0.00 | 96 | 1016.4 |
| 20260906085120 | 70 | 160 | 0.0 | 0.0 | 0.00 | 0.00 | 0.00 | 96 | 1016.8 |
| 20260906084614 | 70 | 160 | 0.0 | 0.0 | 0.00 | 0.00 | 0.00 | 96 | 1016.8 |
| 20260906084113 | 70 | 160 | 0.0 | 0.0 | 0.00 | 0.00 | 0.00 | 96 | 1016.8 |
| 20260906083609 | 71 | 160 | 0.0 | 0.0 | 0.00 | 0.00 | 0.00 | 96 | 1016.4 |
| 20260906083109 | 71 | 160 | 0.9 | 1.7 | 0.00 | 0.00 | 0.00 | 96 | 1016.8 |
| 20260906082604 | 71 | 155 | 0.0 | 0.9 | 0.00 | 0.00 | 0.00 | 96 | 1016.4 |
| 20260906082100 | 71 | 155 | 0.9 | 0.9 | 0.00 | 0.00 | 0.00 | 95 | 1016.8 |
| 20260906081555 | 71 | 155 | 0.9 | 0.9 | 0.00 | 0.00 | 0.00 | 95 | 1016.8 |
| 20260906081050 | 72 | 156 | 0.0 | 0.9 | 0.00 | 0.00 | 0.00 | 95 | 1016.8 |
| 20260906080548 | 72 | 156 | 0.9 | 1.7 | 0.00 | 0.00 | 0.00 | 94 | 1016.8 |
| 20260906080043 | 72 | 182 | 0.9 | 0.9 | 0.00 | 0.00 | 0.00 | 94 | 1016.8 |
| 20260906075543 | 72 | 183 | 0.0 | 0.9 | 0.00 | 0.00 | 0.00 | 94 | 1016.8 |
| 20260906075038 | 72 | 184 | 0.0 | 0.9 | 0.00 | 0.00 | 0.00 | 94 | 1016.8 |
| 20260906074532 | 72 | 207 | 0.0 | 0.0 | 0.00 | 0.00 | 0.00 | 94 | 1016.8 |
| 20260906074031 | 72 | 209 | 0.9 | 0.9 | 0.00 | 0.00 | 0.00 | 94 | 1016.8 |
| 20260906073526 | 72 | 165 | 0.9 | 0.9 | 0.00 | 0.00 | 0.00 | 94 | 1016.8 |
| 20260906073022 | 72 | 165 | 0.0 | 0.9 | 0.00 | 0.00 | 0.00 | 94 | 1016.8 |
| 20260906072517 | 72 | 165 | 0.0 | 0.9 | 0.00 | 0.00 | 0.00 | 94 | 1017.2 |
| 20260906072014 | 72 | 166 | 0.0 | 0.9 | 0.00 | 0.00 | 0.00 | 94 | 1017.2 |
| 20260906071509 | 72 | 166 | 0.0 | 0.9 | 0.00 | 0.00 | 0.00 | 93 | 1016.8 |
| 20260906071004 | 72 | 196 | 0.9 | 0.9 | 0.00 | 0.00 | 0.00 | 94 | 1016.8 |
| 20260906070501 | 72 | 196 | 0.9 | 0.9 | 0.00 | 0.00 | 0.00 | 94 | 1016.4 |
| 20260906065956 | 72 | 196 | 0.9 | 2.6 | 0.00 | 0.00 | 0.00 | 94 | 1016.8 |
| 20260906065455 | 72 | 168 | 0.0 | 0.9 | 0.00 | 0.00 | 0.00 | 95 | 1016.4 |
| 20260906064951 | 73 | 182 | 0.9 | 0.9 | 0.00 | 0.00 | 0.00 | 95 | 1016.8 |
| 20260906064448 | 73 | 182 | 2.6 | 2.6 | 0.00 | 0.00 | 0.00 | 96 | 1016.8 |
| 20260906063948 | 73 | 137 | 2.6 | 4.3 | 0.00 | 0.00 | 0.00 | 96 | 1016.8 |
| 20260906063443 | 73 | 102 | 2.6 | 2.6 | 0.00 | 0.00 | 0.00 | 96 | 1016.8 |
| 20260906062943 | 73 | 92 | 0.9 | 0.9 | 0.00 | 0.00 | 0.00 | 96 | 1016.8 |
| 20260906062439 | 73 | 92 | 0.9 | 0.9 | 0.00 | 0.00 | 0.00 | 96 | 1016.8 |
| 20260906061933 | 73 | 92 | 1.7 | 1.7 | 0.00 | 0.00 | 0.00 | 96 | 1016.8 |
| 20260906061430 | 73 | 92 | 0.0 | 0.0 | 0.00 | 0.00 | 0.00 | 96 | 1016.8 |
| 20260906060924 | 73 | 92 | 0.9 | 1.7 | 0.00 | 0.00 | 0.00 | 97 | 1016.8 |
| 20260906060421 | 73 | 92 | 1.7 | 1.7 | 0.00 | 0.00 | 0.00 | 96 | 1016.8 |
| 20260906055917 | 73 | 84 | 0.9 | 0.9 | 0.00 | 0.00 | 0.00 | 96 | 1016.4 |
| 20260906055413 | 73 | 84 | 0.0 | 0.9 | 0.00 | 0.00 | 0.00 | 96 | 1016.4 |
| 20260906054908 | 72 | 83 | 0.9 | 1.7 | 0.00 | 0.00 | 0.00 | 97 | 1016.8 |
| 20260906054402 | 72 | 85 | 0.9 | 0.9 | 0.00 | 0.00 | 0.00 | 97 | 1016.4 |
| 20260906053859 | 72 | 84 | 1.7 | 2.6 | 0.00 | 0.00 | 0.00 | 97 | 1016.4 |
| 20260906053354 | 72 | 82 | 0.9 | 1.7 | 0.00 | 0.00 | 0.00 | 97 | 1016.4 |
| 20260906052850 | 72 | 84 | 2.6 | 2.6 | 0.00 | 0.00 | 0.00 | 97 | 1016.4 |
| 20260906052346 | 72 | 86 | 4.3 | 5.2 | 0.00 | 0.00 | 0.00 | 98 | 1016.4 |
| 20260906051843 | 72 | 81 | 0.9 | 0.9 | 0.00 | 0.00 | 0.00 | 98 | 1016.4 |
| 20260906051342 | 71 | 83 | 1.7 | 1.7 | 0.00 | 0.00 | 0.00 | 98 | 1016.1 |
| 20260906050838 | 71 | 77 | 0.0 | 0.9 | 0.00 | 0.00 | 0.00 | 98 | 1016.1 |
| 20260906050333 | 71 | 77 | 0.9 | 0.9 | 0.00 | 0.00 | 0.00 | 98 | 1016.1 |
| 20260906045832 | 71 | 98 | 0.0 | 0.0 | 0.00 | 0.00 | 0.00 | 98 | 1016.1 |
| 20260906045326 | 71 | 98 | 0.9 | 0.9 | 0.00 | 0.00 | 0.00 | 98 | 1016.1 |
| 20260906044823 | 71 | 99 | 0.0 | 0.9 | 0.00 | 0.00 | 0.00 | 98 | 1015.7 |
| 20260906044323 | 71 | 96 | 0.9 | 0.9 | 0.00 | 0.00 | 0.00 | 98 | 1015.7 |
| 20260906043819 | 71 | 96 | 0.0 | 0.9 | 0.00 | 0.00 | 0.00 | 98 | 1015.7 |
| 20260906043315 | 71 | 97 | 0.9 | 1.7 | 0.00 | 0.00 | 0.00 | 98 | 1015.7 |
| 20260906042814 | 71 | 93 | 0.9 | 0.9 | 0.00 | 0.00 | 0.00 | 97 | 1015.7 |
| 20260906042313 | 71 | 91 | 0.9 | 1.7 | 0.00 | 0.00 | 0.00 | 97 | 1015.7 |
| 20260906041809 | 71 | 92 | 1.7 | 1.7 | 0.00 | 0.00 | 0.00 | 97 | 1015.4 |
| 20260906041304 | 71 | 83 | 0.0 | 0.9 | 0.00 | 0.00 | 0.00 | 96 | 1015.4 |
| 20260906040759 | 71 | 84 | 0.9 | 1.7 | 0.00 | 0.00 | 0.00 | 96 | 1015.4 |
| 20260906040255 | 71 | 86 | 2.6 | 2.6 | 0.00 | 0.00 | 0.00 | 96 | 1015.7 |
| 20260906035750 | 71 | 82 | 2.6 | 5.2 | 0.00 | 0.00 | 0.00 | 96 | 1015.7 |
| 20260906035245 | 71 | 77 | 1.7 | 2.6 | 0.00 | 0.00 | 0.00 | 95 | 1015.4 |
| 20260906034740 | 71 | 83 | 2.6 | 2.6 | 0.00 | 0.00 | 0.00 | 95 | 1015.4 |
| 20260906034235 | 71 | 89 | 2.6 | 2.6 | 0.00 | 0.00 | 0.00 | 95 | 1015.4 |
| 20260906033731 | 71 | 78 | 2.6 | 4.3 | 0.00 | 0.00 | 0.00 | 95 | 1015.4 |
| 20260906033230 | 72 | 80 | 2.6 | 2.6 | 0.00 | 0.00 | 0.00 | 94 | 1015.4 |
| 20260906032727 | 72 | 79 | 2.6 | 4.3 | 0.00 | 0.00 | 0.00 | 94 | 1015.7 |
| 20260906032226 | 72 | 81 | 1.7 | 1.7 | 0.00 | 0.00 | 0.00 | 94 | 1015.7 |
| 20260906031721 | 72 | 69 | 1.7 | 1.7 | 0.00 | 0.00 | 0.00 | 94 | 1015.4 |
| 20260906031217 | 72 | 91 | 2.6 | 2.6 | 0.00 | 0.00 | 0.00 | 93 | 1015.4 |
| 20260906030717 | 72 | 89 | 0.9 | 0.9 | 0.00 | 0.00 | 0.00 | 93 | 1015.4 |
| 20260906030212 | 73 | 96 | 1.7 | 1.7 | 0.00 | 0.00 | 0.00 | 93 | 1015.4 |
| 20260906025711 | 73 | 101 | 1.7 | 2.6 | 0.00 | 0.00 | 0.00 | 92 | 1015.7 |
| 20260906025206 | 73 | 77 | 2.6 | 2.6 | 0.00 | 0.00 | 0.00 | 92 | 1015.7 |
| 20260906024705 | 73 | 80 | 3.5 | 6.1 | 0.00 | 0.00 | 0.00 | 92 | 1016.1 |
| 20260906024205 | 73 | 100 | 3.5 | 4.3 | 0.00 | 0.00 | 0.00 | 92 | 1015.7 |
| 20260906023701 | 73 | 84 | 2.6 | 2.6 | 0.00 | 0.00 | 0.00 | 92 | 1016.1 |
| 20260906023200 | 73 | 100 | 1.7 | 2.6 | 0.00 | 0.00 | 0.00 | 92 | 1015.7 |
| 20260906022655 | 73 | 93 | 4.3 | 6.1 | 0.00 | 0.00 | 0.00 | 92 | 1015.7 |
| 20260906022151 | 73 | 103 | 1.7 | 2.6 | 0.00 | 0.00 | 0.00 | 92 | 1015.7 |
| 20260906021647 | 73 | 95 | 4.3 | 5.2 | 0.00 | 0.00 | 0.00 | 91 | 1015.7 |
| 20260906021146 | 73 | 79 | 3.5 | 4.3 | 0.00 | 0.00 | 0.00 | 91 | 1015.7 |
| 20260906020641 | 73 | 111 | 2.6 | 4.3 | 0.00 | 0.00 | 0.00 | 91 | 1016.1 |
| 20260906020135 | 73 | 98 | 5.2 | 7.8 | 0.00 | 0.00 | 0.00 | 91 | 1015.7 |
| 20260906015630 | 73 | 81 | 3.5 | 5.2 | 0.00 | 0.00 | 0.00 | 90 | 1015.7 |
| 20260906015129 | 73 | 103 | 3.5 | 4.3 | 0.00 | 0.00 | 0.00 | 90 | 1015.7 |
| 20260906014628 | 73 | 80 | 3.5 | 6.1 | 0.00 | 0.00 | 0.00 | 89 | 1015.7 |
| 20260906014125 | 73 | 118 | 6.1 | 7.0 | 0.00 | 0.00 | 0.00 | 89 | 1015.7 |
| 20260906013620 | 73 | 92 | 1.7 | 2.6 | 0.00 | 0.00 | 0.00 | 89 | 1015.7 |
| 20260906013116 | 73 | 93 | 2.6 | 6.1 | 0.00 | 0.00 | 0.00 | 88 | 1016.1 |
| 20260906012610 | 73 | 90 | 4.3 | 7.0 | 0.00 | 0.00 | 0.00 | 88 | 1016.1 |
| 20260906012105 | 73 | 82 | 2.6 | 4.3 | 0.00 | 0.00 | 0.00 | 88 | 1015.7 |
| 20260906011601 | 74 | 97 | 3.5 | 4.3 | 0.00 | 0.00 | 0.00 | 88 | 1015.7 |
| 20260906011100 | 74 | 76 | 2.6 | 4.3 | 0.00 | 0.00 | 0.00 | 88 | 1015.4 |
| 20260906010556 | 74 | 90 | 4.3 | 6.1 | 0.00 | 0.00 | 0.00 | 90 | 1015.4 |
| 20260906010052 | 74 | 83 | 3.5 | 5.2 | 0.00 | 0.00 | 0.00 | 89 | 1015.4 |
| 20260906005551 | 74 | 92 | 4.3 | 6.1 | 0.00 | 0.00 | 0.00 | 90 | 1015.4 |
| 20260906005050 | 74 | 84 | 3.5 | 5.2 | 0.00 | 0.00 | 0.00 | 90 | 1015.0 |
| 20260906004550 | 74 | 94 | 6.1 | 7.0 | 0.00 | 0.00 | 0.00 | 90 | 1014.7 |
| 20260906004045 | 74 | 89 | 1.7 | 1.7 | 0.00 | 0.00 | 0.00 | 90 | 1015.0 |
| 20260906003540 | 74 | 118 | 2.6 | 2.6 | 0.00 | 0.00 | 0.00 | 90 | 1014.7 |
| 20260906003036 | 74 | 89 | 1.7 | 1.7 | 0.00 | 0.00 | 0.00 | 90 | 1014.7 |
| 20260906002531 | 74 | 104 | 1.7 | 4.3 | 0.00 | 0.00 | 0.00 | 89 | 1014.7 |
| 20260906002025 | 74 | 95 | 5.2 | 6.1 | 0.00 | 0.00 | 0.00 | 89 | 1014.7 |
| 20260906001521 | 75 | 102 | 1.7 | 2.6 | 0.00 | 0.00 | 0.00 | 89 | 1014.7 |
| 20260906001021 | 75 | 114 | 3.5 | 4.3 | 0.00 | 0.00 | 0.00 | 88 | 1014.7 |
| 20260906000517 | 75 | 92 | 2.6 | 2.6 | 0.00 | 0.00 | 0.00 | 88 | 1015.0 |
| 20260906000012 | 76 | 100 | 1.7 | 1.7 | 0.00 | 0.00 | 0.00 | 88 | 1014.7 |
| 20260905235511 | 76 | 107 | 1.7 | 1.7 | 0.00 | 0.00 | 0.00 | 87 | 1014.7 |
| 20260905235007 | 76 | 93 | 1.7 | 2.6 | 0.00 | 0.00 | 0.00 | 87 | 1014.7 |
| 20260905234503 | 77 | 99 | 1.7 | 2.6 | 0.00 | 0.00 | 0.00 | 86 | 1015.0 |
| 20260905234002 | 77 | 114 | 4.3 | 5.2 | 0.00 | 0.00 | 0.00 | 86 | 1014.7 |
| 20260905233458 | 77 | 95 | 2.6 | 4.3 | 0.00 | 0.00 | 0.00 | 86 | 1014.7 |
| 20260905232956 | 78 | 79 | 2.6 | 2.6 | 0.00 | 0.00 | 0.00 | 85 | 1014.7 |
| 20260905232453 | 78 | 93 | 2.6 | 2.6 | 0.00 | 0.00 | 0.00 | 84 | 1014.7 |
| 20260905231948 | 78 | 78 | 3.5 | 5.2 | 0.00 | 0.00 | 0.00 | 84 | 1014.4 |
| 20260905231444 | 78 | 103 | 1.7 | 5.2 | 0.00 | 0.00 | 0.00 | 84 | 1014.4 |
| 20260905230940 | 79 | 113 | 1.7 | 4.3 | 0.00 | 0.00 | 0.00 | 83 | 1014.4 |
| 20260905230438 | 79 | 67 | 2.6 | 4.3 | 0.00 | 0.00 | 0.00 | 83 | 1014.0 |
| 20260905225937 | 79 | 98 | 2.6 | 4.3 | 0.00 | 0.00 | 0.00 | 82 | 1014.4 |
| 20260905225432 | 79 | 98 | 1.7 | 1.7 | 0.00 | 0.00 | 0.00 | 82 | 1014.4 |
| 20260905224927 | 80 | 81 | 4.3 | 7.0 | 0.00 | 0.00 | 0.00 | 81 | 1014.4 |
| 20260905224423 | 80 | 112 | 2.6 | 4.3 | 0.00 | 0.00 | 0.00 | 81 | 1014.0 |
| 20260905223922 | 81 | 56 | 2.6 | 4.3 | 0.00 | 0.00 | 0.00 | 80 | 1014.4 |
| 20260905223421 | 81 | 115 | 2.6 | 2.6 | 0.00 | 0.00 | 0.00 | 80 | 1013.7 |
| 20260905222920 | 80 | 92 | 2.6 | 2.6 | 0.00 | 0.00 | 0.00 | 81 | 1014.4 |
| 20260905222420 | 81 | 114 | 5.2 | 7.8 | 0.00 | 0.00 | 0.00 | 80 | 1014.4 |
| 20260905221916 | 81 | 88 | 1.7 | 1.7 | 0.00 | 0.00 | 0.00 | 80 | 1014.0 |
| 20260905221412 | 81 | 100 | 3.5 | 5.2 | 0.00 | 0.00 | 0.00 | 80 | 1014.4 |
| 20260905220908 | 81 | 100 | 5.2 | 7.0 | 0.00 | 0.00 | 0.00 | 80 | 1014.4 |
| 20260905220404 | 80 | 91 | 2.6 | 4.3 | 0.00 | 0.00 | 0.00 | 82 | 1014.0 |
| 20260905215903 | 81 | 97 | 3.5 | 5.2 | 0.00 | 0.00 | 0.00 | 81 | 1014.0 |
| 20260905215359 | 81 | 108 | 5.2 | 7.0 | 0.00 | 0.00 | 0.00 | 80 | 1014.0 |
| 20260905214855 | 83 | 93 | 2.6 | 4.3 | 0.00 | 0.00 | 0.00 | 78 | 1014.0 |
| 20260905214350 | 83 | 110 | 2.6 | 2.6 | 0.00 | 0.00 | 0.00 | 78 | 1014.0 |
| 20260905213845 | 83 | 95 | 3.5 | 4.3 | 0.00 | 0.00 | 0.00 | 78 | 1013.7 |
| 20260905213342 | 83 | 112 | 4.3 | 5.2 | 0.00 | 0.00 | 0.00 | 77 | 1013.7 |
| 20260905212841 | 83 | 102 | 2.6 | 4.3 | 0.00 | 0.00 | 0.00 | 77 | 1013.7 |
| 20260905212336 | 83 | 95 | 4.3 | 5.2 | 0.00 | 0.00 | 0.00 | 77 | 1014.0 |
| 20260905211835 | 84 | 91 | 3.5 | 5.2 | 0.00 | 0.00 | 0.00 | 76 | 1013.7 |
| 20260905211332 | 84 | 101 | 4.3 | 6.1 | 0.00 | 0.00 | 0.00 | 76 | 1013.7 |
| 20260905210828 | 84 | 97 | 3.5 | 4.3 | 0.00 | 0.00 | 0.00 | 76 | 1013.7 |
| 20260905210327 | 84 | 83 | 6.1 | 7.8 | 0.00 | 0.00 | 0.00 | 75 | 1013.7 |
| 20260905205826 | 84 | 106 | 2.6 | 4.3 | 0.00 | 0.00 | 0.00 | 75 | 1014.0 |
| 20260905205321 | 83 | 76 | 6.1 | 7.8 | 0.00 | 0.00 | 0.00 | 76 | 1013.7 |
| 20260905204820 | 84 | 80 | 2.6 | 4.3 | 0.00 | 0.00 | 0.00 | 76 | 1013.7 |
| 20260905204317 | 85 | 44 | 3.5 | 5.2 | 0.00 | 0.00 | 0.00 | 75 | 1014.0 |
| 20260905203815 | 84 | 62 | 3.5 | 5.2 | 0.00 | 0.00 | 0.00 | 76 | 1013.7 |
| 20260905203312 | 84 | 106 | 3.5 | 4.3 | 0.00 | 0.00 | 0.00 | 76 | 1014.0 |
| 20260905202807 | 84 | 107 | 2.6 | 7.0 | 0.00 | 0.00 | 0.00 | 76 | 1013.7 |
| 20260905202302 | 85 | 116 | 3.5 | 5.2 | 0.00 | 0.00 | 0.00 | 76 | 1014.0 |
| 20260905201758 | 84 | 103 | 4.3 | 6.1 | 0.00 | 0.00 | 0.00 | 76 | 1014.0 |
| 20260905200753 | 86 | 116 | 3.5 | 5.2 | 0.00 | 0.00 | 0.00 | 74 | 1013.7 |
| 20260905200249 | 86 | 78 | 0.9 | 0.9 | 0.00 | 0.00 | 0.00 | 74 | 1013.7 |
| 20260905195746 | 85 | 107 | 1.7 | 2.6 | 0.00 | 0.00 | 0.00 | 73 | 1013.7 |
| 20260905195242 | 86 | 101 | 1.7 | 2.6 | 0.00 | 0.00 | 0.00 | 74 | 1013.7 |
| 20260905194737 | 86 | 120 | 2.6 | 4.3 | 0.00 | 0.00 | 0.00 | 73 | 1013.7 |
| 20260905194237 | 86 | 101 | 3.5 | 4.3 | 0.00 | 0.00 | 0.00 | 74 | 1013.7 |
| 20260905193736 | 85 | 102 | 2.6 | 2.6 | 0.00 | 0.00 | 0.00 | 75 | 1013.7 |
| 20260905193231 | 87 | 105 | 2.6 | 5.2 | 0.00 | 0.00 | 0.00 | 72 | 1013.7 |
| 20260905192727 | 88 | 132 | 4.3 | 5.2 | 0.00 | 0.00 | 0.00 | 71 | 1013.7 |
| 20260905192223 | 87 | 199 | 4.3 | 6.1 | 0.00 | 0.00 | 0.00 | 72 | 1013.7 |
| 20260905191722 | 89 | 149 | 0.0 | 0.9 | 0.00 | 0.00 | 0.00 | 72 | 1014.0 |
| 20260905191220 | 89 | 83 | 2.6 | 2.6 | 0.00 | 0.00 | 0.00 | 71 | 1013.7 |
| 20260905190720 | 87 | 156 | 4.3 | 6.1 | 0.00 | 0.00 | 0.00 | 72 | 1013.7 |
| 20260905190218 | 87 | 105 | 3.5 | 5.2 | 0.00 | 0.00 | 0.00 | 72 | 1013.7 |
| 20260905185718 | 87 | 75 | 3.5 | 5.2 | 0.00 | 0.00 | 0.00 | 74 | 1014.0 |
| 20260905185213 | 87 | 95 | 2.6 | 4.3 | 0.00 | 0.00 | 0.00 | 75 | 1013.7 |
| 20260905184707 | 87 | 99 | 1.7 | 1.7 | 0.00 | 0.00 | 0.00 | 74 | 1014.0 |
| 20260905184206 | 87 | 76 | 7.8 | 9.6 | 0.00 | 0.00 | 0.00 | 74 | 1013.7 |
| 20260905183706 | 87 | 106 | 2.6 | 2.6 | 0.00 | 0.00 | 0.00 | 74 | 1013.7 |
| 20260905183201 | 87 | 96 | 4.3 | 6.1 | 0.00 | 0.00 | 0.00 | 75 | 1014.0 |
| 20260905182701 | 88 | 101 | 2.6 | 2.6 | 0.00 | 0.00 | 0.00 | 75 | 1014.0 |
| 20260905182200 | 87 | 83 | 4.3 | 6.1 | 0.00 | 0.00 | 0.00 | 75 | 1014.0 |
| 20260905181656 | 87 | 88 | 6.1 | 7.8 | 0.00 | 0.00 | 0.00 | 77 | 1013.7 |
| 20260905181155 | 87 | 100 | 3.5 | 5.2 | 0.00 | 0.00 | 0.00 | 78 | 1014.0 |
| 20260905180649 | 87 | 82 | 6.1 | 7.0 | 0.00 | 0.00 | 0.00 | 75 | 1014.0 |
| 20260905180145 | 87 | 95 | 0.9 | 1.7 | 0.00 | 0.00 | 0.00 | 76 | 1014.0 |
| 20260905175644 | 88 | 103 | 2.6 | 2.6 | 0.00 | 0.00 | 0.00 | 77 | 1014.0 |
| 20260905175139 | 87 | 109 | 1.7 | 2.6 | 0.00 | 0.00 | 0.00 | 76 | 1014.0 |
| 20260905174635 | 88 | 141 | 1.7 | 1.7 | 0.00 | 0.00 | 0.00 | 74 | 1014.0 |
| 20260905174130 | 87 | 89 | 4.3 | 5.2 | 0.00 | 0.00 | 0.00 | 77 | 1014.0 |
| 20260905173626 | 87 | 74 | 2.6 | 4.3 | 0.00 | 0.00 | 0.00 | 78 | 1013.7 |
| 20260905173122 | 87 | 95 | 0.9 | 1.7 | 0.00 | 0.00 | 0.00 | 78 | 1014.0 |
| 20260905172621 | 87 | 117 | 0.9 | 1.7 | 0.00 | 0.00 | 0.00 | 78 | 1014.4 |
| 20260905172116 | 86 | 89 | 3.5 | 5.2 | 0.00 | 0.00 | 0.00 | 80 | 1014.0 |
| 20260905171612 | 88 | 77 | 0.9 | 1.7 | 0.00 | 0.00 | 0.00 | 78 | 1014.0 |
| 20260905171108 | 87 | 116 | 0.9 | 1.7 | 0.00 | 0.00 | 0.00 | 76 | 1014.0 |
| 20260905170604 | 87 | 81 | 6.1 | 7.0 | 0.00 | 0.00 | 0.00 | 77 | 1014.0 |
| 20260905170100 | 88 | 99 | 2.6 | 5.2 | 0.00 | 0.00 | 0.00 | 77 | 1014.0 |
| 20260905165600 | 87 | 117 | 2.6 | 4.3 | 0.00 | 0.00 | 0.00 | 77 | 1014.0 |
| 20260905165055 | 86 | 113 | 2.6 | 4.3 | 0.00 | 0.00 | 0.00 | 80 | 1014.4 |
| 20260905164549 | 87 | 95 | 2.6 | 7.8 | 0.00 | 0.00 | 0.00 | 79 | 1014.4 |
| 20260905164044 | 87 | 80 | 4.3 | 5.2 | 0.00 | 0.00 | 0.00 | 79 | 1014.4 |
| 20260905163540 | 87 | 91 | 2.6 | 4.3 | 0.00 | 0.00 | 0.00 | 81 | 1014.0 |
| 20260905163036 | 88 | 100 | 5.2 | 6.1 | 0.00 | 0.00 | 0.00 | 80 | 1014.7 |
| 20260905162532 | 88 | 98 | 4.3 | 6.1 | 0.00 | 0.00 | 0.00 | 79 | 1014.4 |
| 20260905162026 | 88 | 112 | 4.3 | 5.2 | 0.00 | 0.00 | 0.00 | 77 | 1014.4 |
| 20260905161526 | 88 | 221 | 3.5 | 5.2 | 0.00 | 0.00 | 0.00 | 77 | 1014.4 |
| 20260905161024 | 87 | 95 | 2.6 | 2.6 | 0.00 | 0.00 | 0.00 | 79 | 1014.4 |
| 20260905160523 | 86 | 112 | 3.5 | 5.2 | 0.00 | 0.00 | 0.00 | 81 | 1014.4 |
| 20260905160017 | 86 | 93 | 3.5 | 4.3 | 0.00 | 0.00 | 0.00 | 81 | 1014.0 |
| 20260905155517 | 86 | 94 | 1.7 | 1.7 | 0.00 | 0.00 | 0.00 | 82 | 1014.0 |
| 20260905155015 | 87 | 104 | 0.9 | 1.7 | 0.00 | 0.00 | 0.00 | 79 | 1014.0 |
| 20260905154511 | 86 | 108 | 1.7 | 2.6 | 0.00 | 0.00 | 0.00 | 82 | 1014.0 |
| 20260905154007 | 86 | 80 | 3.5 | 4.3 | 0.00 | 0.00 | 0.00 | 83 | 1014.4 |
| 20260905153503 | 86 | 108 | 4.3 | 5.2 | 0.00 | 0.00 | 0.00 | 83 | 1014.0 |
| 20260905153002 | 87 | 100 | 4.3 | 6.1 | 0.00 | 0.00 | 0.00 | 83 | 1014.0 |
| 20260905152502 | 86 | 60 | 0.9 | 1.7 | 0.00 | 0.00 | 0.00 | 82 | 1014.0 |
| 20260905151957 | 86 | 95 | 0.9 | 0.9 | 0.00 | 0.00 | 0.00 | 84 | 1014.0 |
| 20260905151453 | 86 | 91 | 5.2 | 7.0 | 0.00 | 0.00 | 0.00 | 84 | 1013.7 |
| 20260905150953 | 86 | 79 | 2.6 | 4.3 | 0.00 | 0.00 | 0.00 | 84 | 1013.7 |
| 20260905150448 | 84 | 101 | 4.3 | 7.0 | 0.00 | 0.00 | 0.00 | 86 | 1013.7 |
| 20260905145944 | 86 | 25 | 4.3 | 6.1 | 0.00 | 0.00 | 0.00 | 85 | 1013.7 |
| 20260905145439 | 86 | 81 | 0.9 | 0.9 | 0.00 | 0.00 | 0.00 | 83 | 1013.7 |
| 20260905144938 | 86 | 96 | 1.7 | 1.7 | 0.00 | 0.00 | 0.00 | 84 | 1013.7 |
| 20260905144434 | 86 | 41 | 1.7 | 4.3 | 0.00 | 0.00 | 0.00 | 84 | 1013.7 |
| 20260905143932 | 86 | 70 | 2.6 | 2.6 | 0.00 | 0.00 | 0.00 | 84 | 1013.7 |
| 20260905143427 | 84 | 92 | 2.6 | 2.6 | 0.00 | 0.00 | 0.00 | 85 | 1013.7 |
| 20260905142926 | 84 | 74 | 2.6 | 4.3 | 0.00 | 0.00 | 0.00 | 86 | 1013.7 |
| 20260905142425 | 83 | 67 | 3.5 | 5.2 | 0.00 | 0.00 | 0.00 | 87 | 1013.3 |
| 20260905141921 | 84 | 81 | 2.6 | 2.6 | 0.00 | 0.00 | 0.00 | 86 | 1013.3 |
| 20260905141416 | 83 | 77 | 1.7 | 1.7 | 0.00 | 0.00 | 0.00 | 87 | 1013.7 |
| 20260905140912 | 83 | 24 | 3.5 | 4.3 | 0.00 | 0.00 | 0.00 | 87 | 1013.7 |
| 20260905140407 | 83 | 64 | 1.7 | 2.6 | 0.00 | 0.00 | 0.00 | 87 | 1013.7 |
| 20260905135906 | 83 | 72 | 1.7 | 2.6 | 0.00 | 0.00 | 0.00 | 87 | 1013.7 |
| 20260905135402 | 83 | 63 | 3.5 | 5.2 | 0.00 | 0.00 | 0.00 | 86 | 1014.0 |
| 20260905134858 | 83 | 42 | 3.5 | 6.1 | 0.00 | 0.00 | 0.00 | 87 | 1014.4 |
| 20260905134356 | 84 | 71 | 6.1 | 7.0 | 0.00 | 0.00 | 0.00 | 85 | 1014.0 |
| 20260905133850 | 84 | 33 | 4.3 | 5.2 | 0.00 | 0.00 | 0.00 | 84 | 1014.0 |
| 20260905133346 | 84 | 30 | 4.3 | 4.3 | 0.00 | 0.00 | 0.00 | 83 | 1013.7 |
| 20260905132845 | 84 | 8 | 2.6 | 2.6 | 0.00 | 0.00 | 0.00 | 83 | 1013.7 |
| 20260905132341 | 84 | 33 | 3.5 | 4.3 | 0.00 | 0.00 | 0.00 | 83 | 1013.7 |
| 20260905131840 | 83 | 30 | 3.5 | 5.2 | 0.00 | 0.00 | 0.00 | 84 | 1013.3 |
| 20260905131336 | 82 | 1 | 3.5 | 4.3 | 0.00 | 0.00 | 0.00 | 86 | 1013.7 |
| 20260905130831 | 82 | 11 | 1.7 | 2.6 | 0.00 | 0.00 | 0.00 | 88 | 1013.3 |
| 20260905130330 | 81 | 11 | 1.7 | 1.7 | 0.00 | 0.00 | 0.00 | 89 | 1013.3 |
| 20260905125825 | 81 | 11 | 0.0 | 0.9 | 0.00 | 0.00 | 0.00 | 90 | 1013.3 |
| 20260905125320 | 81 | 11 | 2.6 | 2.6 | 0.00 | 0.00 | 0.00 | 90 | 1013.3 |
| 20260905124816 | 81 | 13 | 0.9 | 1.7 | 0.00 | 0.00 | 0.00 | 90 | 1013.0 |
| 20260905124312 | 81 | 13 | 1.7 | 1.7 | 0.00 | 0.00 | 0.00 | 90 | 1013.0 |
| 20260905123807 | 80 | 13 | 0.0 | 0.9 | 0.00 | 0.00 | 0.00 | 91 | 1013.3 |
| 20260905123304 | 80 | 13 | 0.9 | 0.9 | 0.00 | 0.00 | 0.00 | 91 | 1013.0 |
| 20260905122803 | 80 | 14 | 2.6 | 2.6 | 0.00 | 0.00 | 0.00 | 92 | 1013.0 |
| 20260905122306 | 79 | 67 | 0.9 | 0.9 | 0.00 | 0.00 | 0.00 | 93 | 1013.3 |
| 20260905121759 | 79 | 67 | 0.9 | 0.9 | 0.00 | 0.00 | 0.00 | 95 | 1013.0 |
| 20260905121255 | 78 | 67 | 0.0 | 0.0 | 0.00 | 0.00 | 0.00 | 96 | 1013.0 |
| 20260905120753 | 77 | 67 | 0.9 | 0.9 | 0.00 | 0.00 | 0.00 | 96 | 1013.0 |
| 20260905120253 | 77 | 67 | 0.9 | 0.9 | 0.00 | 0.00 | 0.00 | 96 | 1013.0 |
| 20260905115749 | 77 | 67 | 0.0 | 0.0 | 0.00 | 0.00 | 0.00 | 96 | 1012.7 |
| 20260905115248 | 77 | 67 | 0.0 | 0.0 | 0.00 | 0.00 | 0.00 | 96 | 1013.0 |
| 20260905114748 | 78 | 67 | 0.0 | 0.9 | 0.00 | 0.00 | 0.00 | 96 | 1012.7 |
| 20260905114247 | 78 | 67 | 0.0 | 0.0 | 0.00 | 0.00 | 0.00 | 96 | 1013.0 |
| 20260905113746 | 78 | 67 | 0.0 | 0.0 | 0.00 | 0.00 | 0.00 | 96 | 1013.0 |
| 20260905113242 | 78 | 67 | 0.0 | 0.0 | 0.00 | 0.00 | 0.00 | 96 | 1013.0 |